Climatologie pour Saint-Brevin les Pins
Jour • Résumé pour mai 26, 2017 Système :  Métrique    Anglais   Mixte
« - 1 jour
+ 1 jour »
Jour Semaine Mois Année Personnalisé
  Maximum : Minimum : Moyenne :
Température sous abri : 31.1 °C 15.7 °C 22.1 °C
Point de rosée : 20.4 °C 12.8 °C 16 °C
Humidité : 91 % 47 % 70 %
Vitesse du vent : 22.5 km/h 0.0 km/h 5.9 km/h
Rafale : 30.6 km/h - -
Direction :- - SE
Pression : 1014.4 hPa 1009.7 hPa -
Précipitations : 0.0 mm    
Historical Graphs
 
 
Tableau de données pour mai 26, 2017
Heure Tempé Pt rosée Pression Vent Vitesse Rafale Humidité Taux pluie (/hr) Soleil
00:00 20.4 °C 15.9 °C 1014.4 hPa East 8.0 km/h 11.3 km/h 75 % 0.0 mm 0 W/m2
00:10 20.4 °C 15.8 °C 1014.4 hPa East 4.8 km/h 11.3 km/h 75 % 0.0 mm 0 W/m2
00:15 20.3 °C 15.8 °C 1014.1 hPa ENE 3.2 km/h 11.3 km/h 75 % 0.0 mm 0 W/m2
00:20 20.2 °C 15.6 °C 1014.1 hPa East 14.5 km/h 14.5 km/h 75 % 0.0 mm 0 W/m2
00:25 20.2 °C 15.6 °C 1014.1 hPa East 9.7 km/h 14.5 km/h 75 % 0.0 mm 0 W/m2
00:30 20.2 °C 15.6 °C 1014.1 hPa East 4.8 km/h 14.5 km/h 75 % 0.0 mm 0 W/m2
00:35 20.2 °C 15.6 °C 1014.1 hPa East 14.5 km/h 14.5 km/h 75 % 0.0 mm 0 W/m2
00:40 20.2 °C 15.6 °C 1014.1 hPa ENE 4.8 km/h 14.5 km/h 75 % 0.0 mm 0 W/m2
00:45 20.1 °C 15.5 °C 1014.1 hPa East 4.8 km/h 14.5 km/h 75 % 0.0 mm 0 W/m2
00:50 20.1 °C 15.5 °C 1014.1 hPa ENE 6.4 km/h 12.9 km/h 75 % 0.0 mm 0 W/m2
00:55 19.8 °C 15.3 °C 1014.1 hPa ENE 3.2 km/h 11.3 km/h 75 % 0.0 mm 0 W/m2
01:05 19.3 °C 15.4 °C 1014.1 hPa ENE 3.2 km/h 9.7 km/h 78 % 0.0 mm 0 W/m2
01:10 19.1 °C 15.1 °C 1014.1 hPa East 4.8 km/h 8.0 km/h 78 % 0.0 mm 0 W/m2
01:15 19.1 °C 15.3 °C 1014.1 hPa ENE 4.8 km/h 9.7 km/h 79 % 0.0 mm 0 W/m2
01:20 18.9 °C 15.2 °C 1014.1 hPa ENE 3.2 km/h 9.7 km/h 79 % 0.0 mm 0 W/m2
01:25 18.7 °C 15.0 °C 1014.1 hPa ENE 6.4 km/h 6.4 km/h 79 % 0.0 mm 0 W/m2
01:30 18.8 °C 15.1 °C 1014.1 hPa ENE 4.8 km/h 8.0 km/h 79 % 0.0 mm 0 W/m2
01:35 18.7 °C 15.1 °C 1014.1 hPa East 3.2 km/h 9.7 km/h 80 % 0.0 mm 0 W/m2
01:40 18.6 °C 15.0 °C 1014.1 hPa East 9.7 km/h 11.3 km/h 80 % 0.0 mm 0 W/m2
01:45 18.4 °C 14.9 °C 1014.1 hPa East 4.8 km/h 12.9 km/h 80 % 0.0 mm 0 W/m2
01:50 18.6 °C 15.0 °C 1013.8 hPa ENE 6.4 km/h 12.9 km/h 80 % 0.0 mm 0 W/m2
01:55 18.6 °C 15.0 °C 1013.8 hPa East 4.8 km/h 11.3 km/h 80 % 0.0 mm 0 W/m2
02:00 18.6 °C 15.0 °C 1013.8 hPa ENE 8.0 km/h 12.9 km/h 80 % 0.0 mm 0 W/m2
02:05 18.7 °C 14.9 °C 1013.8 hPa ENE 4.8 km/h 12.9 km/h 79 % 0.0 mm 0 W/m2
02:10 18.7 °C 14.9 °C 1013.8 hPa East 4.8 km/h 12.9 km/h 79 % 0.0 mm 0 W/m2
02:15 18.7 °C 14.8 °C 1013.8 hPa East 9.7 km/h 12.9 km/h 78 % 0.0 mm 0 W/m2
02:20 18.6 °C 14.6 °C 1013.8 hPa ENE 8.0 km/h 12.9 km/h 78 % 0.0 mm 0 W/m2
02:25 18.5 °C 14.6 °C 1013.4 hPa ESE 3.2 km/h 14.5 km/h 78 % 0.0 mm 0 W/m2
02:30 18.4 °C 14.5 °C 1013.8 hPa East 3.2 km/h 14.5 km/h 78 % 0.0 mm 0 W/m2
02:35 18.3 °C 14.6 °C 1013.4 hPa ENE 3.2 km/h 12.9 km/h 79 % 0.0 mm 0 W/m2
02:40 18.3 °C 14.4 °C 1013.4 hPa East 4.8 km/h 11.3 km/h 78 % 0.0 mm 0 W/m2
02:45 18.3 °C 14.4 °C 1013.4 hPa ENE 3.2 km/h 11.3 km/h 78 % 0.0 mm 0 W/m2
02:50 18.2 °C 14.3 °C 1013.4 hPa East 9.7 km/h 11.3 km/h 78 % 0.0 mm 0 W/m2
02:55 18.2 °C 14.3 °C 1013.4 hPa East 4.8 km/h 9.7 km/h 78 % 0.0 mm 0 W/m2
03:00 18.1 °C 14.2 °C 1013.4 hPa East 4.8 km/h 11.3 km/h 78 % 0.0 mm 0 W/m2
03:05 18.0 °C 14.3 °C 1013.4 hPa East 1.6 km/h 11.3 km/h 79 % 0.0 mm 0 W/m2
03:10 17.9 °C 14.2 °C 1013.1 hPa East 4.8 km/h 11.3 km/h 79 % 0.0 mm 0 W/m2
03:15 17.9 °C 14.2 °C 1013.1 hPa East 4.8 km/h 12.9 km/h 79 % 0.0 mm 0 W/m2
03:20 17.8 °C 14.1 °C 1013.1 hPa East 3.2 km/h 12.9 km/h 79 % 0.0 mm 0 W/m2
03:25 17.7 °C 14.0 °C 1013.1 hPa East 1.6 km/h 9.7 km/h 79 % 0.0 mm 0 W/m2
03:30 17.6 °C 14.1 °C 1013.1 hPa East 3.2 km/h 9.7 km/h 80 % 0.0 mm 0 W/m2
03:35 17.6 °C 14.1 °C 1013.1 hPa ENE 6.4 km/h 9.7 km/h 80 % 0.0 mm 0 W/m2
03:40 17.5 °C 14.0 °C 1013.1 hPa East 8.0 km/h 9.7 km/h 80 % 0.0 mm 0 W/m2
03:45 17.4 °C 14.0 °C 1013.4 hPa ENE 4.8 km/h 9.7 km/h 80 % 0.0 mm 0 W/m2
03:50 17.3 °C 13.8 °C 1013.4 hPa East 1.6 km/h 9.7 km/h 80 % 0.0 mm 0 W/m2
03:55 17.2 °C 13.9 °C 1013.1 hPa East 4.8 km/h 9.7 km/h 81 % 0.0 mm 0 W/m2
04:00 17.2 °C 13.9 °C 1013.1 hPa ESE 1.6 km/h 9.7 km/h 81 % 0.0 mm 0 W/m2
04:05 17.1 °C 13.8 °C 1013.1 hPa East 4.8 km/h 9.7 km/h 81 % 0.0 mm 0 W/m2
04:10 16.9 °C 13.8 °C 1013.1 hPa East 6.4 km/h 11.3 km/h 82 % 0.0 mm 0 W/m2
04:15 17.0 °C 13.9 °C 1013.1 hPa East 11.3 km/h 12.9 km/h 82 % 0.0 mm 0 W/m2
04:20 17.0 °C 13.9 °C 1013.1 hPa East 1.6 km/h 12.9 km/h 82 % 0.0 mm 0 W/m2
04:25 16.9 °C 13.8 °C 1012.8 hPa ESE 8.0 km/h 12.9 km/h 82 % 0.0 mm 0 W/m2
04:30 16.9 °C 13.8 °C 1012.8 hPa East 8.0 km/h 12.9 km/h 82 % 0.0 mm 0 W/m2
04:35 16.8 °C 13.7 °C 1012.8 hPa ENE 8.0 km/h 14.5 km/h 82 % 0.0 mm 0 W/m2
04:40 16.9 °C 13.8 °C 1012.8 hPa Calm   14.5 km/h 82 % 0.0 mm 0 W/m2
04:45 16.9 °C 13.6 °C 1012.8 hPa East 4.8 km/h 12.9 km/h 81 % 0.0 mm 0 W/m2
04:50 16.7 °C 13.6 °C 1012.8 hPa East 3.2 km/h 11.3 km/h 82 % 0.0 mm 0 W/m2
04:55 16.7 °C 13.6 °C 1012.8 hPa ENE 1.6 km/h 11.3 km/h 82 % 0.0 mm 0 W/m2
05:00 16.6 °C 13.5 °C 1012.8 hPa East 9.7 km/h 14.5 km/h 82 % 0.0 mm 0 W/m2
05:05 16.7 °C 13.6 °C 1012.8 hPa East 4.8 km/h 14.5 km/h 82 % 0.0 mm 0 W/m2
05:10 16.6 °C 13.3 °C 1012.8 hPa East 3.2 km/h 11.3 km/h 81 % 0.0 mm 0 W/m2
05:15 16.6 °C 13.5 °C 1012.8 hPa East 4.8 km/h 11.3 km/h 82 % 0.0 mm 0 W/m2
05:20 16.6 °C 13.5 °C 1012.4 hPa East 4.8 km/h 12.9 km/h 82 % 0.0 mm 0 W/m2
05:25 16.5 °C 13.4 °C 1012.4 hPa East 6.4 km/h 14.5 km/h 82 % 0.0 mm 0 W/m2
05:30 16.6 °C 13.3 °C 1012.4 hPa East 3.2 km/h 14.5 km/h 81 % 0.0 mm 0 W/m2
05:35 16.6 °C 13.3 °C 1012.4 hPa East 6.4 km/h 12.9 km/h 81 % 0.0 mm 0 W/m2
05:40 16.6 °C 13.3 °C 1012.4 hPa East 3.2 km/h 14.5 km/h 81 % 0.0 mm 0 W/m2
05:45 16.6 °C 13.3 °C 1012.4 hPa ENE 3.2 km/h 14.5 km/h 81 % 0.0 mm 0 W/m2
05:50 16.6 °C 13.1 °C 1012.4 hPa ENE 3.2 km/h 14.5 km/h 80 % 0.0 mm 0 W/m2
05:55 16.4 °C 13.2 °C 1012.4 hPa ENE 6.4 km/h 14.5 km/h 81 % 0.0 mm 0 W/m2
06:00 16.4 °C 13.1 °C 1012.4 hPa ESE 4.8 km/h 12.9 km/h 81 % 0.0 mm 0 W/m2
06:05 16.3 °C 13.1 °C 1012.1 hPa East 8.0 km/h 12.9 km/h 81 % 0.0 mm 0 W/m2
06:10 16.3 °C 13.0 °C 1012.1 hPa East 4.8 km/h 12.9 km/h 81 % 0.0 mm 0 W/m2
06:15 16.2 °C 13.0 °C 1012.1 hPa East 8.0 km/h 12.9 km/h 81 % 0.0 mm 0 W/m2
06:20 16.1 °C 13.0 °C 1012.1 hPa Calm   12.9 km/h 82 % 0.0 mm 0 W/m2
06:25 16.1 °C 13.0 °C 1012.1 hPa East 4.8 km/h 11.3 km/h 82 % 0.0 mm 5 W/m2
06:30 15.9 °C 12.9 °C 1012.1 hPa Calm   11.3 km/h 82 % 0.0 mm 7 W/m2
06:35 15.8 °C 12.8 °C 1012.1 hPa ESE 3.2 km/h 11.3 km/h 82 % 0.0 mm 9 W/m2
06:40 15.8 °C 12.9 °C 1012.1 hPa East 1.6 km/h 11.3 km/h 83 % 0.0 mm 11 W/m2
06:45 15.7 °C 12.8 °C 1012.1 hPa East 3.2 km/h 11.3 km/h 83 % 0.0 mm 12 W/m2
06:50 15.9 °C 12.9 °C 1011.7 hPa ESE 1.6 km/h 9.7 km/h 82 % 0.0 mm 14 W/m2
06:55 16.1 °C 13.0 °C 1011.7 hPa ESE 1.6 km/h 12.9 km/h 82 % 0.0 mm 16 W/m2
07:00 16.2 °C 12.9 °C 1011.7 hPa ESE 6.4 km/h 12.9 km/h 81 % 0.0 mm 18 W/m2
07:05 16.3 °C 13.0 °C 1011.7 hPa ESE 6.4 km/h 11.3 km/h 81 % 0.0 mm 19 W/m2
07:10 16.4 °C 13.1 °C 1012.1 hPa ESE 3.2 km/h 11.3 km/h 81 % 0.0 mm 21 W/m2
07:15 16.4 °C 13.0 °C 1012.1 hPa ESE 4.8 km/h 11.3 km/h 80 % 0.0 mm 23 W/m2
07:20 16.6 °C 13.1 °C 1011.7 hPa ESE 6.4 km/h 12.9 km/h 80 % 0.0 mm 25 W/m2
07:25 16.7 °C 13.3 °C 1011.7 hPa East 4.8 km/h 12.9 km/h 80 % 0.0 mm 26 W/m2
07:30 16.8 °C 13.2 °C 1012.1 hPa East 3.2 km/h 12.9 km/h 79 % 0.0 mm 26 W/m2
07:35 17.0 °C 13.3 °C 1012.1 hPa East 3.2 km/h 12.9 km/h 79 % 0.0 mm 28 W/m2
07:40 17.1 °C 13.2 °C 1012.1 hPa East 4.8 km/h 14.5 km/h 78 % 0.0 mm 30 W/m2
07:45 17.3 °C 13.4 °C 1012.1 hPa East 8.0 km/h 14.5 km/h 78 % 0.0 mm 32 W/m2
07:50 17.4 °C 13.5 °C 1011.7 hPa East 3.2 km/h 12.9 km/h 78 % 0.0 mm 32 W/m2
07:55 17.6 °C 13.5 °C 1012.1 hPa ESE 6.4 km/h 12.9 km/h 77 % 0.0 mm 33 W/m2
08:00 17.7 °C 13.6 °C 1012.1 hPa East 9.7 km/h 14.5 km/h 77 % 0.0 mm 202 W/m2
08:05 17.8 °C 13.7 °C 1012.1 hPa ESE 8.0 km/h 14.5 km/h 77 % 0.0 mm 221 W/m2
08:10 17.9 °C 13.9 °C 1011.7 hPa East 8.0 km/h 16.1 km/h 77 % 0.0 mm 237 W/m2
08:15 18.2 °C 13.9 °C 1012.1 hPa ESE 8.0 km/h 16.1 km/h 76 % 0.0 mm 253 W/m2
08:20 18.4 °C 13.9 °C 1012.1 hPa ESE 4.8 km/h 16.1 km/h 75 % 0.0 mm 267 W/m2
08:25 18.6 °C 14.1 °C 1012.1 hPa ESE 9.7 km/h 16.1 km/h 75 % 0.0 mm 283 W/m2
08:30 18.8 °C 14.3 °C 1012.1 hPa ESE 3.2 km/h 16.1 km/h 75 % 0.0 mm 299 W/m2
08:35 19.1 °C 14.4 °C 1011.7 hPa ESE 6.4 km/h 17.7 km/h 74 % 0.0 mm 313 W/m2
08:40 19.3 °C 14.4 °C 1012.1 hPa East 4.8 km/h 17.7 km/h 73 % 0.0 mm 327 W/m2
08:45 19.6 °C 14.6 °C 1011.7 hPa ENE 8.0 km/h 12.9 km/h 73 % 0.0 mm 306 W/m2
08:50 19.8 °C 14.6 °C 1012.1 hPa East 14.5 km/h 20.9 km/h 72 % 0.0 mm 357 W/m2
08:55 20.0 °C 14.6 °C 1012.1 hPa ESE 6.4 km/h 20.9 km/h 71 % 0.0 mm 373 W/m2
09:00 20.3 °C 15.1 °C 1012.1 hPa ENE 8.0 km/h 17.7 km/h 72 % 0.0 mm 388 W/m2
09:05 20.6 °C 14.9 °C 1012.1 hPa SE 1.6 km/h 17.7 km/h 70 % 0.0 mm 403 W/m2
09:10 20.8 °C 15.1 °C 1012.1 hPa SSE 12.9 km/h 14.5 km/h 70 % 0.0 mm 417 W/m2
09:15 21.0 °C 15.1 °C 1012.1 hPa ESE 8.0 km/h 16.1 km/h 69 % 0.0 mm 429 W/m2
09:20 21.2 °C 15.3 °C 1012.1 hPa ESE 1.6 km/h 16.1 km/h 69 % 0.0 mm 445 W/m2
09:25 21.5 °C 15.3 °C 1012.1 hPa SE 4.8 km/h 16.1 km/h 68 % 0.0 mm 462 W/m2
09:30 21.6 °C 15.4 °C 1012.1 hPa ESE 8.0 km/h 16.1 km/h 68 % 0.0 mm 476 W/m2
09:35 21.8 °C 15.6 °C 1012.1 hPa NE 11.3 km/h 14.5 km/h 68 % 0.0 mm 492 W/m2
09:40 22.0 °C 15.4 °C 1012.1 hPa East 9.7 km/h 14.5 km/h 66 % 0.0 mm 501 W/m2
09:45 22.2 °C 15.7 °C 1012.1 hPa ESE 6.4 km/h 12.9 km/h 67 % 0.0 mm 519 W/m2
09:50 22.2 °C 15.6 °C 1011.7 hPa ESE 11.3 km/h 19.3 km/h 66 % 0.0 mm 533 W/m2
09:55 22.3 °C 15.9 °C 1012.1 hPa ESE 6.4 km/h 19.3 km/h 67 % 0.0 mm 547 W/m2
10:00 22.6 °C 15.4 °C 1011.7 hPa ENE 4.8 km/h 16.1 km/h 64 % 0.0 mm 559 W/m2
10:05 22.7 °C 15.7 °C 1011.7 hPa East 6.4 km/h 17.7 km/h 65 % 0.0 mm 573 W/m2
10:10 22.8 °C 16.1 °C 1011.7 hPa ESE 3.2 km/h 17.7 km/h 66 % 0.0 mm 584 W/m2
10:15 23.0 °C 15.8 °C 1011.7 hPa ENE 14.5 km/h 14.5 km/h 64 % 0.0 mm 599 W/m2
10:20 23.2 °C 15.7 °C 1011.7 hPa East 4.8 km/h 17.7 km/h 63 % 0.0 mm 608 W/m2
10:25 23.3 °C 16.1 °C 1012.1 hPa East 11.3 km/h 17.7 km/h 64 % 0.0 mm 619 W/m2
10:30 23.6 °C 16.3 °C 1011.7 hPa SE 1.6 km/h 16.1 km/h 64 % 0.0 mm 631 W/m2
10:35 23.8 °C 16.4 °C 1011.7 hPa East 4.8 km/h 17.7 km/h 63 % 0.0 mm 645 W/m2
10:40 23.9 °C 16.2 °C 1011.7 hPa East 4.8 km/h 17.7 km/h 62 % 0.0 mm 657 W/m2
10:45 24.0 °C 16.5 °C 1012.1 hPa NE 6.4 km/h 14.5 km/h 63 % 0.0 mm 668 W/m2
10:50 24.2 °C 16.2 °C 1011.7 hPa ESE 4.8 km/h 14.5 km/h 61 % 0.0 mm 682 W/m2
10:55 24.4 °C 16.4 °C 1011.7 hPa ESE 6.4 km/h 12.9 km/h 61 % 0.0 mm 689 W/m2
11:00 24.4 °C 16.4 °C 1011.7 hPa ESE 8.0 km/h 12.9 km/h 61 % 0.0 mm 700 W/m2
11:05 24.8 °C 17.0 °C 1011.7 hPa Calm   12.9 km/h 62 % 0.0 mm 710 W/m2
11:10 25.1 °C 16.5 °C 1011.7 hPa SE 12.9 km/h 12.9 km/h 59 % 0.0 mm 724 W/m2
11:15 25.2 °C 16.9 °C 1011.7 hPa SE 8.0 km/h 12.9 km/h 60 % 0.0 mm 733 W/m2
11:20 25.4 °C 17.1 °C 1011.4 hPa ESE 8.0 km/h 14.5 km/h 60 % 0.0 mm 744 W/m2
11:25 25.7 °C 17.4 °C 1011.4 hPa SE 8.0 km/h 14.5 km/h 60 % 0.0 mm 756 W/m2
11:30 25.6 °C 16.9 °C 1011.4 hPa East 6.4 km/h 12.9 km/h 59 % 0.0 mm 765 W/m2
11:35 25.6 °C 16.7 °C 1011.4 hPa ENE 3.2 km/h 11.3 km/h 58 % 0.0 mm 773 W/m2
11:40 25.8 °C 17.5 °C 1011.4 hPa ENE 6.4 km/h 11.3 km/h 60 % 0.0 mm 780 W/m2
11:45 26.3 °C 17.7 °C 1011.4 hPa ENE 6.4 km/h 12.9 km/h 59 % 0.0 mm 791 W/m2
11:50 26.2 °C 17.3 °C 1011.4 hPa ENE 1.6 km/h 16.1 km/h 58 % 0.0 mm 800 W/m2
11:55 26.1 °C 17.5 °C 1011.1 hPa ENE 6.4 km/h 16.1 km/h 59 % 0.0 mm 809 W/m2
12:05 26.4 °C 17.8 °C 1011.4 hPa ENE 4.8 km/h 16.1 km/h 59 % 0.0 mm 821 W/m2
12:10 26.8 °C 17.9 °C 1011.4 hPa ESE 3.2 km/h 16.1 km/h 58 % 0.0 mm 828 W/m2
12:15 27.1 °C 17.8 °C 1011.4 hPa ENE 4.8 km/h 16.1 km/h 57 % 0.0 mm 835 W/m2
12:20 27.1 °C 18.1 °C 1011.1 hPa ENE 1.6 km/h 16.1 km/h 58 % 0.0 mm 842 W/m2
12:25 27.3 °C 17.7 °C 1011.1 hPa NE 6.4 km/h 16.1 km/h 56 % 0.0 mm 847 W/m2
12:30 27.6 °C 18.6 °C 1011.1 hPa ESE 6.4 km/h 16.1 km/h 58 % 0.0 mm 854 W/m2
12:40 27.4 °C 17.5 °C 1011.1 hPa NE 12.9 km/h 17.7 km/h 55 % 0.0 mm 863 W/m2
12:45 27.5 °C 18.5 °C 1011.1 hPa ESE 8.0 km/h 17.7 km/h 58 % 0.0 mm 868 W/m2
12:50 27.9 °C 18.0 °C 1011.1 hPa ESE 1.6 km/h 14.5 km/h 55 % 0.0 mm 874 W/m2
12:55 28.2 °C 18.8 °C 1011.1 hPa ENE 11.3 km/h 16.1 km/h 57 % 0.0 mm 875 W/m2
13:00 28.1 °C 18.7 °C 1011.1 hPa ESE 8.0 km/h 16.1 km/h 57 % 0.0 mm 877 W/m2
13:05 28.2 °C 18.3 °C 1011.1 hPa ESE 4.8 km/h 14.5 km/h 55 % 0.0 mm 882 W/m2
13:10 28.4 °C 18.5 °C 1011.1 hPa East 8.0 km/h 14.5 km/h 55 % 0.0 mm 884 W/m2
13:15 28.4 °C 18.2 °C 1011.1 hPa ESE 8.0 km/h 14.5 km/h 54 % 0.0 mm 889 W/m2
13:20 28.4 °C 17.9 °C 1011.1 hPa ESE 9.7 km/h 16.1 km/h 53 % 0.0 mm 889 W/m2
13:25 28.6 °C 18.6 °C 1011.1 hPa ESE 8.0 km/h 16.1 km/h 55 % 0.0 mm 893 W/m2
13:30 28.8 °C 17.7 °C 1011.1 hPa ESE 8.0 km/h 16.1 km/h 51 % 0.0 mm 893 W/m2
13:35 28.7 °C 18.8 °C 1011.1 hPa ENE 1.6 km/h 16.1 km/h 55 % 0.0 mm 896 W/m2
13:40 29.1 °C 18.9 °C 1011.1 hPa ESE 6.4 km/h 14.5 km/h 54 % 0.0 mm 900 W/m2
13:45 29.2 °C 18.3 °C 1011.1 hPa SSE 6.4 km/h 14.5 km/h 52 % 0.0 mm 902 W/m2
13:50 29.3 °C 17.8 °C 1011.1 hPa SSE 14.5 km/h 16.1 km/h 50 % 0.0 mm 898 W/m2
13:55 29.4 °C 18.2 °C 1011.1 hPa East 6.4 km/h 17.7 km/h 51 % 0.0 mm 898 W/m2
14:00 29.5 °C 19.2 °C 1010.7 hPa ESE 6.4 km/h 17.7 km/h 54 % 0.0 mm 898 W/m2
14:05 29.3 °C 18.1 °C 1011.1 hPa East 11.3 km/h 17.7 km/h 51 % 0.0 mm 898 W/m2
14:10 29.7 °C 18.2 °C 1010.7 hPa SSE 3.2 km/h 19.3 km/h 50 % 0.0 mm 898 W/m2
14:15 29.7 °C 17.5 °C 1010.7 hPa SSW 4.8 km/h 19.3 km/h 48 % 0.0 mm 895 W/m2
14:20 29.7 °C 18.5 °C 1010.7 hPa SE 6.4 km/h 14.5 km/h 51 % 0.0 mm 889 W/m2
14:25 30.2 °C 18.6 °C 1010.7 hPa ESE 14.5 km/h 14.5 km/h 50 % 0.0 mm 889 W/m2
14:30 30.3 °C 17.8 °C 1010.7 hPa SSE 11.3 km/h 16.1 km/h 47 % 0.0 mm 889 W/m2
14:35 30.2 °C 18.3 °C 1010.7 hPa SE 8.0 km/h 16.1 km/h 49 % 0.0 mm 886 W/m2
14:40 30.5 °C 18.2 °C 1010.7 hPa ESE 3.2 km/h 17.7 km/h 48 % 0.0 mm 882 W/m2
14:45 30.8 °C 19.8 °C 1010.4 hPa Calm   17.7 km/h 52 % 0.0 mm 877 W/m2
14:50 30.6 °C 18.0 °C 1010.4 hPa ESE 3.2 km/h 12.9 km/h 47 % 0.0 mm 874 W/m2
14:55 30.4 °C 18.8 °C 1010.4 hPa South 6.4 km/h 12.9 km/h 50 % 0.0 mm 870 W/m2
15:00 30.6 °C 19.6 °C 1010.4 hPa NW 3.2 km/h 12.9 km/h 52 % 0.0 mm 865 W/m2
15:10 30.5 °C 18.9 °C 1010.4 hPa SE 3.2 km/h 11.3 km/h 50 % 0.0 mm 854 W/m2
15:15 30.8 °C 19.2 °C 1010.4 hPa ESE 8.0 km/h 11.3 km/h 50 % 0.0 mm 842 W/m2
15:20 30.9 °C 18.3 °C 1010.4 hPa ESE 1.6 km/h 16.1 km/h 47 % 0.0 mm 842 W/m2
15:25 31.1 °C 19.7 °C 1010.4 hPa West 3.2 km/h 16.1 km/h 51 % 0.0 mm 835 W/m2
15:30 30.2 °C 19.6 °C 1010.0 hPa NW 4.8 km/h 9.7 km/h 53 % 0.0 mm 828 W/m2
15:35 29.7 °C 20.2 °C 1010.0 hPa WNW 4.8 km/h 9.7 km/h 57 % 0.0 mm 821 W/m2
15:40 29.8 °C 19.5 °C 1010.0 hPa WNW 6.4 km/h 8.0 km/h 54 % 0.0 mm 816 W/m2
15:45 30.1 °C 20.4 °C 1010.0 hPa West 8.0 km/h 12.9 km/h 56 % 0.0 mm 805 W/m2
15:50 29.2 °C 18.6 °C 1010.4 hPa WSW 20.9 km/h 30.6 km/h 53 % 0.0 mm 796 W/m2
15:55 26.9 °C 17.4 °C 1010.4 hPa WSW 22.5 km/h 30.6 km/h 56 % 0.0 mm 789 W/m2
16:00 25.9 °C 17.3 °C 1010.4 hPa NW 9.7 km/h 22.5 km/h 59 % 0.0 mm 779 W/m2
16:05 25.8 °C 17.2 °C 1010.4 hPa WSW 9.7 km/h 22.5 km/h 59 % 0.0 mm 765 W/m2
16:10 25.9 °C 17.3 °C 1010.4 hPa West 9.7 km/h 17.7 km/h 59 % 0.0 mm 756 W/m2
16:15 25.7 °C 17.4 °C 1010.4 hPa West 8.0 km/h 14.5 km/h 60 % 0.0 mm 747 W/m2
16:20 25.6 °C 17.8 °C 1010.4 hPa WSW 8.0 km/h 14.5 km/h 62 % 0.0 mm 744 W/m2
16:25 25.3 °C 17.5 °C 1010.4 hPa WSW 8.0 km/h 19.3 km/h 62 % 0.0 mm 731 W/m2
16:30 25.3 °C 17.8 °C 1010.4 hPa West 3.2 km/h 19.3 km/h 63 % 0.0 mm 721 W/m2
16:35 25.8 °C 18.5 °C 1010.4 hPa West 3.2 km/h 12.9 km/h 64 % 0.0 mm 710 W/m2
16:40 26.2 °C 17.8 °C 1010.4 hPa SW 1.6 km/h 16.1 km/h 60 % 0.0 mm 701 W/m2
16:45 26.2 °C 18.3 °C 1010.4 hPa SSW 9.7 km/h 16.1 km/h 62 % 0.0 mm 689 W/m2
16:50 26.3 °C 17.9 °C 1010.4 hPa SW 6.4 km/h 17.7 km/h 60 % 0.0 mm 680 W/m2
16:55 26.3 °C 18.2 °C 1010.4 hPa South 8.0 km/h 17.7 km/h 61 % 0.0 mm 670 W/m2
17:00 26.1 °C 17.4 °C 1010.4 hPa South 3.2 km/h 19.3 km/h 59 % 0.0 mm 659 W/m2
17:05 26.5 °C 17.3 °C 1010.4 hPa West 6.4 km/h 19.3 km/h 57 % 0.0 mm 647 W/m2
17:10 26.6 °C 17.7 °C 1010.4 hPa West 8.0 km/h 17.7 km/h 58 % 0.0 mm 638 W/m2
17:15 26.5 °C 17.8 °C 1010.4 hPa WSW 3.2 km/h 17.7 km/h 59 % 0.0 mm 624 W/m2
17:20 26.9 °C 17.9 °C 1010.4 hPa WNW 6.4 km/h 17.7 km/h 58 % 0.0 mm 613 W/m2
17:25 26.6 °C 16.8 °C 1010.4 hPa West 9.7 km/h 17.7 km/h 55 % 0.0 mm 605 W/m2
17:30 26.6 °C 16.8 °C 1010.0 hPa SW 8.0 km/h 16.1 km/h 55 % 0.0 mm 591 W/m2
17:40 26.8 °C 17.6 °C 1010.0 hPa SSW 3.2 km/h 12.9 km/h 57 % 0.0 mm 510 W/m2
17:50 26.9 °C 17.4 °C 1010.0 hPa SSW 6.4 km/h 14.5 km/h 56 % 0.0 mm 517 W/m2
17:55 26.8 °C 17.3 °C 1010.0 hPa SSW 4.8 km/h 14.5 km/h 56 % 0.0 mm 533 W/m2
18:00 26.4 °C 17.2 °C 1010.0 hPa WSW 11.3 km/h 14.5 km/h 57 % 0.0 mm 520 W/m2
18:05 26.2 °C 17.5 °C 1010.0 hPa WSW 9.7 km/h 14.5 km/h 59 % 0.0 mm 374 W/m2
18:10 26.0 °C 17.4 °C 1010.0 hPa SW 6.4 km/h 11.3 km/h 59 % 0.0 mm 483 W/m2
18:15 25.9 °C 17.8 °C 1010.0 hPa SW 4.8 km/h 11.3 km/h 61 % 0.0 mm 480 W/m2
18:20 26.2 °C 18.1 °C 1010.0 hPa SSW 6.4 km/h 11.3 km/h 61 % 0.0 mm 464 W/m2
18:25 26.3 °C 18.2 °C 1009.7 hPa SW 3.2 km/h 11.3 km/h 61 % 0.0 mm 439 W/m2
18:30 26.2 °C 17.8 °C 1009.7 hPa SW 3.2 km/h 9.7 km/h 60 % 0.0 mm 432 W/m2
18:35 26.0 °C 17.4 °C 1009.7 hPa South 4.8 km/h 11.3 km/h 59 % 0.0 mm 424 W/m2
18:40 26.1 °C 17.7 °C 1009.7 hPa SW 4.8 km/h 12.9 km/h 60 % 0.0 mm 411 W/m2
18:45 26.2 °C 17.8 °C 1009.7 hPa SSW 11.3 km/h 12.9 km/h 60 % 0.0 mm 394 W/m2
18:50 26.2 °C 18.1 °C 1009.7 hPa SW 1.6 km/h 22.5 km/h 61 % 0.0 mm 376 W/m2
18:55 25.8 °C 17.4 °C 1009.7 hPa South 4.8 km/h 22.5 km/h 60 % 0.0 mm 364 W/m2
19:00 25.5 °C 17.7 °C 1010.0 hPa WSW 8.0 km/h 12.9 km/h 62 % 0.0 mm 350 W/m2
19:05 24.8 °C 17.6 °C 1010.0 hPa SW 9.7 km/h 17.7 km/h 64 % 0.0 mm 336 W/m2
19:10 24.3 °C 17.3 °C 1010.0 hPa SSW 12.9 km/h 17.7 km/h 65 % 0.0 mm 322 W/m2
19:15 24.1 °C 16.9 °C 1010.0 hPa South 6.4 km/h 16.1 km/h 64 % 0.0 mm 309 W/m2
19:20 24.0 °C 16.5 °C 1009.7 hPa South 6.4 km/h 16.1 km/h 63 % 0.0 mm 294 W/m2
19:25 24.2 °C 16.7 °C 1009.7 hPa South 3.2 km/h 12.9 km/h 63 % 0.0 mm 278 W/m2
19:30 24.2 °C 16.5 °C 1010.0 hPa SW 6.4 km/h 12.9 km/h 62 % 0.0 mm 264 W/m2
19:35 24.1 °C 16.6 °C 1009.7 hPa South 1.6 km/h 12.9 km/h 63 % 0.0 mm 250 W/m2
19:40 23.9 °C 16.7 °C 1010.0 hPa SSW 6.4 km/h 16.1 km/h 64 % 0.0 mm 229 W/m2
19:45 23.6 °C 16.3 °C 1010.0 hPa South 3.2 km/h 16.1 km/h 64 % 0.0 mm 207 W/m2
19:50 23.4 °C 16.5 °C 1010.0 hPa South 8.0 km/h 14.5 km/h 65 % 0.0 mm 183 W/m2
19:55 23.2 °C 16.8 °C 1010.0 hPa West 3.2 km/h 11.3 km/h 67 % 0.0 mm 165 W/m2
20:00 23.0 °C 16.8 °C 1010.0 hPa South 1.6 km/h 12.9 km/h 68 % 0.0 mm 62 W/m2
20:05 22.8 °C 16.6 °C 1010.0 hPa South 3.2 km/h 12.9 km/h 68 % 0.0 mm 146 W/m2
20:10 22.8 °C 16.6 °C 1010.0 hPa South 3.2 km/h 12.9 km/h 68 % 0.0 mm 139 W/m2
20:15 22.8 °C 16.8 °C 1010.4 hPa SW 6.4 km/h 11.3 km/h 69 % 0.0 mm 125 W/m2
20:20 22.6 °C 16.9 °C 1010.4 hPa SSW 4.8 km/h 12.9 km/h 70 % 0.0 mm 105 W/m2
20:25 22.4 °C 16.9 °C 1010.4 hPa SW 4.8 km/h 12.9 km/h 71 % 0.0 mm 88 W/m2
20:30 22.2 °C 16.9 °C 1010.4 hPa SW 8.0 km/h 11.3 km/h 72 % 0.0 mm 39 W/m2
20:35 21.9 °C 16.8 °C 1010.4 hPa South 9.7 km/h 11.3 km/h 73 % 0.0 mm 53 W/m2
20:40 21.7 °C 17.0 °C 1010.4 hPa South 4.8 km/h 11.3 km/h 75 % 0.0 mm 35 W/m2
20:45 21.5 °C 17.1 °C 1010.4 hPa South 6.4 km/h 11.3 km/h 76 % 0.0 mm 32 W/m2
20:50 21.3 °C 17.1 °C 1010.4 hPa South 6.4 km/h 11.3 km/h 77 % 0.0 mm 25 W/m2
20:55 21.2 °C 17.0 °C 1010.0 hPa South 4.8 km/h 9.7 km/h 77 % 0.0 mm 19 W/m2
21:00 21.2 °C 16.8 °C 1010.0 hPa SSE 3.2 km/h 9.7 km/h 76 % 0.0 mm 18 W/m2
21:05 21.3 °C 16.9 °C 1010.0 hPa SSE 3.2 km/h 8.0 km/h 76 % 0.0 mm 18 W/m2
21:10 21.2 °C 17.0 °C 1010.0 hPa Calm   6.4 km/h 77 % 0.0 mm 18 W/m2
21:15 21.2 °C 17.0 °C 1010.0 hPa SE 1.6 km/h 8.0 km/h 77 % 0.0 mm 16 W/m2
21:20 21.1 °C 16.9 °C 1009.7 hPa Calm   9.7 km/h 77 % 0.0 mm 12 W/m2
21:25 20.9 °C 16.8 °C 1009.7 hPa SE 3.2 km/h 9.7 km/h 77 % 0.0 mm 9 W/m2
21:30 20.9 °C 16.8 °C 1009.7 hPa ESE 3.2 km/h 6.4 km/h 77 % 0.0 mm 7 W/m2
21:35 20.9 °C 16.8 °C 1009.7 hPa Calm   6.4 km/h 77 % 0.0 mm 0 W/m2
21:40 20.7 °C 16.7 °C 1009.7 hPa ENE 3.2 km/h 4.8 km/h 78 % 0.0 mm 0 W/m2
21:45 20.7 °C 16.7 °C 1009.7 hPa East 3.2 km/h 8.0 km/h 78 % 0.0 mm 0 W/m2
21:50 20.8 °C 16.6 °C 1010.0 hPa SSE 3.2 km/h 8.0 km/h 77 % 0.0 mm 0 W/m2
21:55 20.8 °C 16.6 °C 1010.0 hPa SE 3.2 km/h 8.0 km/h 77 % 0.0 mm 0 W/m2
22:05 20.3 °C 16.6 °C 1009.7 hPa Calm   6.4 km/h 79 % 0.0 mm 0 W/m2
22:10 19.9 °C 16.5 °C 1009.7 hPa East 3.2 km/h 4.8 km/h 81 % 0.0 mm 0 W/m2
22:15 20.2 °C 16.6 °C 1010.0 hPa East 4.8 km/h 4.8 km/h 80 % 0.0 mm 0 W/m2
22:20 20.3 °C 16.6 °C 1010.0 hPa East 3.2 km/h 4.8 km/h 79 % 0.0 mm 0 W/m2
22:25 20.3 °C 16.6 °C 1010.0 hPa East 4.8 km/h 4.8 km/h 79 % 0.0 mm 0 W/m2
22:30 20.3 °C 16.6 °C 1010.0 hPa ESE 3.2 km/h 6.4 km/h 79 % 0.0 mm 0 W/m2
22:35 20.3 °C 16.8 °C 1010.0 hPa SSE 3.2 km/h 6.4 km/h 80 % 0.0 mm 0 W/m2
22:40 20.4 °C 16.5 °C 1010.4 hPa SSE 3.2 km/h 8.0 km/h 78 % 0.0 mm 0 W/m2
22:45 20.6 °C 16.6 °C 1010.4 hPa SSE 1.6 km/h 8.0 km/h 78 % 0.0 mm 0 W/m2
22:50 20.7 °C 16.5 °C 1010.4 hPa SW 6.4 km/h 9.7 km/h 77 % 0.0 mm 0 W/m2
22:55 20.6 °C 17.0 °C 1011.4 hPa WSW 14.5 km/h 22.5 km/h 80 % 0.0 mm 0 W/m2
23:00 20.3 °C 17.1 °C 1011.7 hPa SW 9.7 km/h 22.5 km/h 82 % 0.0 mm 0 W/m2
23:05 19.9 °C 17.0 °C 1012.1 hPa SW 8.0 km/h 24.1 km/h 83 % 0.0 mm 0 W/m2
23:10 19.4 °C 16.7 °C 1012.1 hPa WSW 9.7 km/h 27.4 km/h 84 % 0.0 mm 0 W/m2
23:15 18.9 °C 16.5 °C 1012.4 hPa West 8.0 km/h 27.4 km/h 86 % 0.0 mm 0 W/m2
23:20 18.6 °C 16.6 °C 1012.4 hPa SSW 6.4 km/h 24.1 km/h 88 % 0.0 mm 0 W/m2
23:25 18.3 °C 16.5 °C 1012.4 hPa West 6.4 km/h 20.9 km/h 89 % 0.0 mm 0 W/m2
23:30 18.2 °C 16.6 °C 1012.8 hPa WSW 6.4 km/h 20.9 km/h 90 % 0.0 mm 0 W/m2
23:35 18.1 °C 16.4 °C 1012.4 hPa SW 4.8 km/h 19.3 km/h 90 % 0.0 mm 0 W/m2
23:40 18.0 °C 16.5 °C 1012.4 hPa WSW 1.6 km/h 17.7 km/h 91 % 0.0 mm 0 W/m2
23:50 17.8 °C 16.3 °C 1012.4 hPa WSW 14.5 km/h 24.1 km/h 91 % 0.0 mm 0 W/m2
Avec l'autorisation de Weather Underground - 1.75 mb